KG1ZR Weather Reports


Display with metric or nautical units.
time (UTC)temp
F
wind
direction
speed
MPH
gust
MPH
rain 1hr
in
rain 24hr
in
rain mn
in
humidity
%
barometer
mb
20260502224104 42 15 1.0 4.0 0.08 0.21 0.20 65 1010.1
20260502223105 42 24 1.0 4.0 0.07 0.19 0.19 65 1010.0
20260502222105 42 37 0.0 4.0 0.06 0.18 0.18 65 1010.2
20260502221104 42 24 0.0 5.0 0.04 0.16 0.16 65 1010.2
20260502220105 42 35 1.0 5.0 0.03 0.15 0.15 65 1010.2
20260502215105 42 49 1.0 4.0 0.02 0.14 0.14 65 1010.2
20260502214547 42 355 0.0 1.0 0.01 0.13 0.13 65 1010.3
20260502213105 42 26 0.0 3.0 0.00 0.12 0.12 66 1010.3
20260502212105 42 13 0.0 3.0 0.00 0.12 0.12 66 1010.3
20260502211105 42 21 0.0 3.0 0.00 0.12 0.12 65 1010.2
20260502210105 42 21 1.0 3.0 0.00 0.12 0.12 65 1010.2
20260502205105 43 19 0.0 3.0 0.00 0.12 0.12 65 1010.3
20260502204105 43 24 1.0 3.0 0.00 0.12 0.12 65 1010.4
20260502203104 43 13 0.0 3.0 0.00 0.12 0.12 65 1010.3
20260502202551 42 20 1.0 3.0 0.00 0.12 0.12 65 1010.2
20260502201543 42 50 1.0 3.0 0.00 0.12 0.12 66 1010.3
20260502200101 42 24 1.0 4.0 0.00 0.12 0.12 66 1010.3
20260502195101 42 28 2.0 5.0 0.00 0.12 0.12 66 1010.4
20260502194101 42 34 1.0 5.0 0.01 0.12 0.12 67 1010.5
20260502193101 42 44 2.0 5.0 0.02 0.12 0.12 67 1010.7
20260502192538 42 33 0.0 3.0 0.02 0.12 0.12 67 1010.8
20260502191100 42 24 1.0 3.0 0.03 0.12 0.12 67 1011.0
20260502185100 42 49 0.0 2.0 0.04 0.12 0.12 68 1011.0
20260502184101 42 49 0.0 3.0 0.03 0.11 0.11 68 1011.1
20260502183101 42 44 1.0 3.0 0.02 0.10 0.10 69 1011.1
20260502182101 42 58 1.0 3.0 0.03 0.10 0.10 70 1011.1
20260502181541 42 32 2.0 3.0 0.02 0.09 0.09 71 1011.1
20260502180533 42 44 0.0 5.0 0.03 0.09 0.09 71 1011.1
20260502164101 42 112 4.0 9.0 0.00 0.04 0.04 78 1011.4
20260502163100 43 107 4.0 11.0 0.00 0.04 0.04 78 1011.4
20260502162100 43 92 5.0 11.0 0.00 0.04 0.04 77 1011.3
20260502161533 42 61 3.0 9.0 0.00 0.04 0.04 76 1011.5
20260502152100 42 103 4.0 10.0 0.00 0.04 0.04 77 1012.0
20260502151100 41 63 4.0 8.0 0.00 0.04 0.04 77 1012.2
20260502150536 41 104 4.0 8.0 0.00 0.04 0.04 78 1012.3
20260502123101 39 292 1.0 3.0 0.04 0.04 0.04 70 1012.6
20260502122101 39 5 1.0 2.0 0.03 0.03 0.03 70 1012.9
20260502121101 38 5 1.0 3.0 0.02 0.02 0.01 71 1013.0
20260502120534 38 109 0.0 3.0 0.01 0.01 0.01 72 1013.0
20260502115100 37 236 1.0 3.0 0.01 0.01 0.01 73 1013.1
20260502114058 36 225 0.0 2.0 0.00 0.00 0.00 73 1013.1
20260502113533 36 225 0.0 2.0 0.00 0.00 0.00 73 1012.7
20260502112056 35 225 0.0 2.0 0.00 0.00 0.00 74 1012.7
20260502111054 35 225 0.0 1.0 0.00 0.00 0.00 74 1012.7
20260502110052 35 225 0.0 1.0 0.00 0.00 0.00 74 1012.5
20260502105050 34 269 0.0 0.0 0.00 0.00 0.00 74 1012.4
20260502104525 33 269 0.0 0.0 0.00 0.00 0.00 75 1012.3
20260502103049 33 269 0.0 1.0 0.00 0.00 0.00 76 1012.1
20260502102046 33 269 0.0 1.0 0.00 0.00 0.00 76 1012.0
20260502101046 33 269 1.0 2.0 0.00 0.00 0.00 76 1011.8
20260502091041 33 0 0.0 0.0 0.00 0.00 0.00 77 1011.5
20260502071036 29 0 0.0 0.0 0.00 0.00 0.00 79 1011.0
20260502070510 29 0 0.0 0.0 0.00 0.00 0.00 80 1011.0
20260502065036 30 0 0.0 0.0 0.00 0.00 0.00 80 1010.7
20260502064523 31 320 0.0 0.0 0.00 0.00 0.00 80 1010.7
20260502063034 31 320 0.0 0.0 0.00 0.00 0.00 80 1010.7
20260502062034 31 320 0.0 0.0 0.00 0.00 0.00 80 1010.8
20260502061034 31 320 0.0 0.0 0.00 0.00 0.00 80 1010.8
20260502060034 31 320 0.0 0.0 0.00 0.00 0.00 80 1010.7
20260502055507 32 320 0.0 0.0 0.00 0.00 0.00 80 1010.8
20260502054511 32 320 0.0 0.0 0.00 0.00 0.00 79 1010.8
20260502053033 33 320 0.0 0.0 0.00 0.00 0.00 79 1010.8
20260502052032 33 320 0.0 0.0 0.00 0.00 0.00 79 1010.8
20260502051031 33 320 0.0 0.0 0.00 0.00 0.00 79 1010.9
20260502050516 33 320 0.0 0.0 0.00 0.00 0.00 79 1010.7
20260502045030 33 320 0.0 0.0 0.00 0.00 0.00 79 1010.7
20260502044031 33 320 0.0 0.0 0.00 0.00 0.00 79 1010.6
20260502043030 34 320 0.0 0.0 0.00 0.00 0.00 77 1010.5
20260502042029 34 320 0.0 0.0 0.00 0.00 0.00 76 1010.5
20260502041029 35 320 0.0 0.0 0.00 0.00 0.00 75 1010.5
20260502040029 35 320 0.0 0.0 0.00 0.00 0.00 75 1010.5
20260502035029 36 320 0.0 0.0 0.00 0.00 0.00 75 1010.4
20260502034028 36 320 0.0 0.0 0.00 0.00 0.00 74 1010.4
20260502033028 36 320 0.0 0.0 0.00 0.00 0.00 75 1010.4
20260502032029 37 320 0.0 0.0 0.00 0.00 0.00 75 1010.4
20260502031029 37 320 0.0 0.0 0.00 0.00 0.00 72 1010.3
20260502030029 38 320 0.0 0.0 0.00 0.00 0.00 73 1010.3
20260502025030 38 320 0.0 0.0 0.00 0.00 0.00 72 1010.3
20260502024028 38 320 0.0 0.0 0.00 0.00 0.00 70 1010.3
20260502023029 39 320 0.0 1.0 0.00 0.00 0.00 69 1010.2
20260502022029 39 320 0.0 0.0 0.00 0.00 0.00 68 1010.2
20260502021029 40 320 0.0 0.0 0.00 0.00 0.00 66 1010.2
20260502020030 41 320 0.0 0.0 0.00 0.00 0.00 62 1010.3
20260502015029 42 320 0.0 0.0 0.00 0.00 0.00 60 1010.3
20260502014029 42 320 0.0 0.0 0.00 0.00 0.00 58 1010.3
20260502013523 43 320 0.0 0.0 0.00 0.00 0.00 56 1010.2
20260502012029 44 320 0.0 0.0 0.00 0.00 0.00 55 1010.1
20260502011029 45 320 0.0 0.0 0.00 0.00 0.00 54 1010.0
20260502010028 45 320 0.0 1.0 0.00 0.00 0.00 54 1009.9
20260502005029 46 320 0.0 1.0 0.00 0.00 0.00 51 1009.8
20260502004029 46 320 0.0 2.0 0.00 0.00 0.00 50 1009.6
20260502003511 47 320 0.0 2.0 0.00 0.00 0.00 50 1009.5
20260502002029 47 320 1.0 6.0 0.00 0.00 0.00 50 1009.3
20260502001029 48 313 1.0 6.0 0.00 0.00 0.00 48 1009.1
20260502000029 49 325 1.0 6.0 0.00 0.00 0.00 48 1008.8
20260501235029 50 307 2.0 11.0 0.00 0.00 0.00 45 1008.6
20260501234030 51 310 2.0 11.0 0.00 0.00 0.00 45 1008.4
20260501233029 52 314 3.0 9.0 0.00 0.00 0.00 43 1008.3
20260501232029 53 302 4.0 9.0 0.00 0.00 0.00 42 1008.0
20260501231029 54 321 4.0 11.0 0.00 0.00 0.00 42 1007.9
20260501230503 55 321 3.0 14.0 0.00 0.00 0.00 42 1007.6
20260501225509 56 333 2.0 7.0 0.00 0.00 0.00 41 1007.4
20260501224504 56 348 2.0 6.0 0.00 0.01 0.00 42 1007.3